Location: Newark
(49.1939°N, 0.8136°E)
Time: 13:05:17
(UTC+00:00)

Envisat - Pass Details

Date: 20 November 2019
Orbit: 764 x 766 km, 98.1° (Epoch: 13 December)

Event Time Altitude Azimuth Distance (km) Brightness Sun altitude
Rises 18:19:01 0° 181° (S) 3,220 6.3 -20.7°
Reaches altitude 10° 18:21:24 10° 187° (S) 2,299 5.6 -21.1°
Maximum altitude 18:26:17 47° 261° (W) 1,010 4.0 -21.9°
Drops below altitude 10° 18:31:12 10° 336° (NNW) 2,315 5.7 -22.7°
Sets 18:33:37 0° 342° (NNW) 3,245 6.4 -23.1°
